This demonstration page uses our WeatherBlox Daily Observations layout. Learn more.

Left ArrowRight Arrow

36.17497, -115.13722

Hourly Observations for February 14, 2019

Temp ( °F °C ) Dew Point ( °F °C ) Humidity (%) Winds ( mph kmh ) Pressure ( in mb ) Visibility ( mi km ) Precip ( " mm )
12:53 am 00:53 Clear 48 8.9 25 -3.9 41 41 NW 6 9 29.91 1013 10 16 0.00 0.00
1:53 am 01:53 Mostly Clear 50 10 27 -2.8 41 41 ENE 12 19 29.90 1013 10 16 0.00 0.00
2:53 am 02:53 Clear 50 10 28 -2.2 43 43 ENE 10 17 29.90 1013 10 16 0.00 0.00
3:53 am 03:53 Clear 50 10 30 -1.1 46 46 E 9 15 29.90 1013 10 16 0.00 0.00
4:53 am 04:53 Mostly Cloudy 50 10 32 0 50 50 E 6 9 29.91 1013 10 16 0.00 0.00
5:53 am 05:53 Cloudy with Light Rain 48 8.9 39 3.9 71 71 E 8 13 29.90 1012 10 16 0.02 0.51
6:53 am 06:53 Cloudy with Rain 46 7.8 43 6.1 89 89 ESE 8 13 29.91 1013 8 13 0.09 2.29
7:20 am 07:20 Cloudy with Rain 45 7.2 42 5.6 90 90 E 7 11 29.90 1012 5 8 0.07 1.78
7:53 am 07:53 Cloudy with Light Rain 45 7.2 42 5.6 90 90 ENE 3 6 29.94 1014 5 8 0.12 3.05
8:19 am 08:19 Cloudy with Light Rain 45 7.2 43 6.1 93 93 SE 5 7 29.91 1013 5 8 0.05 1.27
8:49 am 08:49 Cloudy with Rain 45 7 43 6 93 93 SE 7 11 29.91 1013 3 5 0.15 3.81
8:53 am 08:53 Cloudy with Rain 45 7.2 44 6.7 97 97 S 3 6 29.95 1014 3 5 0.16 4.06
9:07 am 09:07 Cloudy with Rain 45 7.2 44 6.7 97 97 E 6 9 29.88 1012 3 5 0.04 1.02
9:46 am 09:46 Cloudy with Rain 46 7.8 44 6.7 93 93 ESE 9 15 29.87 1012 4 6 0.09 2.29
9:53 am 09:53 Cloudy with Light Rain 46 7.8 44 6.7 93 93 SE 8 13 29.90 1013 3 5 0.10 2.54
10:07 am 10:07 Cloudy with Rain 46 7.8 44 6.7 93 93 SE 7 11 29.86 1011 3 5 0.03 0.76
10:17 am 10:17 Cloudy with Rain 46 7.8 44 6.7 93 93 ESE 8 13 29.84 1011 3 5 0.05 1.27
10:26 am 10:26 Cloudy with Rain 46 7.8 45 7.2 96 96 ESE 6 9 29.84 1011 3 5 0.07 1.78
10:33 am 10:33 Cloudy with Rain 46 7.8 45 7.2 96 96 E 7 11 29.84 1011 4 6 0.08 2.03
10:43 am 10:43 Cloudy with Rain 46 7.8 45 7.2 96 96 E 6 9 29.83 1010 5 8 0.10 2.54
10:53 am 10:53 Cloudy with Light Rain 46 7.8 45 7.2 96 96 E 7 11 29.87 1012 6 10 0.12 3.05
11:18 am 11:18 Cloudy with Rain 46 7.8 45 7.2 96 96 ESE 6 9 29.82 1010 5 8 0.04 1.02
11:33 am 11:33 Cloudy with Light Rain 46 7.8 45 7.2 96 96 E 8 13 29.80 1009 6 10 0.06 1.52
11:43 am 11:43 Cloudy with Light Rain 46 7.8 45 7.2 96 96 SE 6 9 29.79 1009 6 10 0.08 2.03
11:53 am 11:53 Cloudy with Rain 46 7.8 45 7.2 96 96 ESE 6 9 29.81 1010 4 6 0.10 2.54
12:06 pm 12:06 Cloudy with Rain 47 8.3 45 7.2 93 93 SE 5 7 29.78 1008 5 8 0.02 0.51
12:53 pm 12:53 Cloudy with Light Rain 47 8.3 46 7.8 97 97 ESE 6 9 29.78 1008 7 11 0.10 2.54
1:01 pm 13:01 Cloudy with Rain 47 8.3 46 7.8 97 97 ESE 7 11 29.73 1007 5 8 0.02 0.51
1:53 pm 13:53 Cloudy with Light Rain 47 8.3 46 7.8 97 97 E 8 13 29.75 1007 5 8 0.14 3.56
2:29 pm 14:29 Cloudy with Light Rain 48 8.9 46 7.8 93 93 E 6 9 29.71 1006 2 2 0.07 1.78
2:53 pm 14:53 Cloudy with Rain 48 8.9 46 7.8 93 93 ESE 5 7 29.75 1008 2 2 0.10 2.54
3:00 pm 15:00 Cloudy with Rain 48 8.9 47 8.3 96 96 Calm 29.72 1007 2 2 0.02 0.51
3:43 pm 15:43 Cloudy with Light Rain 48 8.9 46 7.8 93 93 Calm 29.72 1007 2 2 0.11 2.79
3:51 pm 15:51 Cloudy with Light Rain 48 9 46 8 94 94 ESE 3 6 29.71 1006 2 2 0.12 3.05
3:53 pm 15:53 Cloudy with Light Rain 48 8.9 46 7.8 93 93 E 3 6 29.75 1007 2 2 0.12 3.05
4:02 pm 16:02 Cloudy with Light Rain 48 8.9 46 7.8 93 93 SSE 8 13 29.70 1006 2 2 0.01 0.25
4:12 pm 16:12 Cloudy with Light Rain 48 8.9 46 7.8 93 93 S 9 15 29.71 1006 2 2 0.02 0.51
4:21 pm 16:21 Mostly Cloudy with Light Rain 48 8.9 46 7.8 93 93 S 10 17 29.69 1006 9 14 0.02 0.51
4:53 pm 16:53 Sunny 48 8.9 46 7.8 93 93 SW 14 22 29.69 1006 10 16 0.03 0.76
5:53 pm 17:53 Clear 53 11.7 46 7.8 77 77 SSW 10 17 29.66 1005 10 16 0.00 0.00
6:53 pm 18:53 Mostly Cloudy with Light Rain 50 10 45 7.2 83 83 NE 8 13 29.70 1006 10 16 0.00 0.03
7:53 pm 19:53 Mostly Cloudy 56 13.3 36 2.2 47 47 SW 23 37 29.70 1006 10 16 0.00 0.03
8:53 pm 20:53 Clear 53 11.7 33 0.6 47 47 W 26 43 29.72 1006 10 16 0.00 0.00
9:53 pm 21:53 Clear 53 11.7 33 0.6 47 47 W 17 28 29.75 1008 10 16 0.00 0.00
10:53 pm 22:53 Clear 51 10.6 33 0.6 50 50 SW 12 19 29.80 1009 10 16 0.00 0.00
11:53 pm 23:53 Clear 49 9.4 34 1.1 56 56 S 10 17 29.83 1010 10 16 0.00 0.00

Powered by AerisWeather